Location: Alfords
(31.4624°N, 83.9238°W)
Time: 03:49:28
(UTC+00:00)

Envisat - Pass Details

Date: 21 September 2021
Orbit: 764 x 766 km, 98.2° (Epoch: 15 October)

Event Time Altitude Azimuth Distance (km) Brightness Sun altitude
Rises 09:50:42 0° 27° (NNE) 3,232 6.8 -20.4°
Reaches altitude 10° 09:53:23 10° 40° (NE) 2,302 6.2 -19.9°
Maximum altitude 09:57:34 26° 96° (E) 1,478 5.2 -19.0°
Drops below altitude 10° 10:01:44 10° 152° (SSE) 2,290 5.6 -18.1°
Sets 10:04:23 0° 165° (SSE) 3,212 6.3 -17.6°
